BEIDOU-3 M19 (C41)

Last updated on Sat Aug 22 2026 00:03:24 GMT+0000 (Coordinated Universal Time)

1 44864U 19090A 26233.16841847 -.00000037 00000+0 00000+0 0 9999 2 44864 56.6183 60.6444 0015886 294.2140 246.2374 1.86231748 45446
UTC large
Height (km)
Speed (km/s)
/
Latitude / Longitude
Inclination (degrees)
Orbital Period (minutes)
Azimuth
Elevation
Range (km)
Doppler Factor

Next 0 passes for location: London (51.5072 / 0.1276)

No passes found over London.
BEIDOU-3 M19 (C41)